Regional Weather Roundup
Issued by NWS

Home | Current Version | Previous Version | Text Only | Print | Product List | Glossary Off
Versions: 1 2 3 4 5 6 7 8 9 10 11 12 13 14 15 16 17 18 19 20 21 22 23 24 25 26 27 28 29 30 31 32 33 34 35 36 37 38 39 40 41 42 43 44 45 46 47 48 49 50

000
ASUS43 KFSD 192110
RWRSD

WEATHER ROUNDUP FOR SOUTH DAKOTA
NATIONAL WEATHER SERVICE SIOUX FALLS SD
400 PM CDT SUN OCT 19 2014

NOTE: "FAIR" INDICATES FEW OR NO CLOUDS BELOW 12,000 FEET WITH NO
SIGNIFICANT WEATHER AND/OR OBSTRUCTIONS TO VISIBILITY.


SDZ001>005-009-010-012>017-192200-
NORTHWEST AND NORTH CENTRAL SOUTH DAKOTA

CITY           SKY/WX    TMP DP  RH WIND       PRES   REMARKS
BUFFALO          N/A     71  35  26 NW15G23   29.96S
FAITH            N/A     72  39  30 NW18G25   29.99R
MOBRIDGE       SUNNY     76  39  26 NW17      29.91R
$$

SDZ012>016-024>037-041>051-057-063-072>074-192200-
SOUTHWEST AND SOUTH CENTRAL SOUTH DAKOTA

CITY           SKY/WX    TMP DP  RH WIND       PRES   REMARKS
RAPID CTY ARPT SUNNY     73  40  30 N12       30.03S
PIERRE         SUNNY     77  37  23 NW17      29.92F
CUSTER         SUNNY     69  31  24 NW9G18    30.11F
ELLSWORTH AFB  SUNNY     72  40  31 N9        30.03S
PHILIP         SUNNY     77  40  26 NW15      29.97S
PINE RIDGE     SUNNY     74  38  27 N6        30.03F
SPEARFISH      FAIR      68  41  37 N9        30.07S
WINNER         FAIR      80  37  21 N13G29    29.95F
$$

SDZ004>011-016>023-039-040-192200-
NORTHEAST SOUTH DAKOTA

CITY           SKY/WX    TMP DP  RH WIND       PRES   REMARKS
ABERDEEN       SUNNY     76  40  27 NW17      29.88R
WATERTOWN      SUNNY     70  40  33 NW14      29.88R
SISSETON         N/A     73  39  29 N25G31    29.82S
$$

SDZ017-020-022-023-036>040-048>070-192200-
SOUTHEAST SOUTH DAKOTA

CITY           SKY/WX    TMP DP  RH WIND       PRES   REMARKS
SIOUX FALLS    SUNNY     74  44  34 NW13      29.88S
HURON          SUNNY     78  36  21 N17G24    29.87F
CHAMBERLAIN    SUNNY     76  40  27 NW17      29.93S
MITCHELL       SUNNY     79  40  24 NW17      29.89S
YANKTON        SUNNY     73  48  40 SW9       29.89F
$$

ABBREVIATIONS USED IN REMARKS
   TC - TEMPERATURE IN CELSIUS
  WCI - WIND CHILL INDEX
   HX - HEAT INDEX
  VSB - VISIBILITY




USA.gov is the U.S. government's official web portal to all federal, state and local government web resources and services.